ALK127 VCBI-VOMM

Flight info

Callsign ALK127
Flight time 1h 2m
Altitude 35000
Route ATETA1D ATETA DCT SAGOR DCT AKMIL DCT ARDAB
Aircraft A320/M-SDE3FGHIRWY/LB1

Departure

Time 2026-04-25 08:03
Airport Bandaranaike International Colombo Airport (VCBI)

Arrival

Time 2026-04-25 09:05
Airport Chennai International Airport (VOMM)
Time Latitude Longitude Altitude Speed Heading
2026-04-25 07:36 7.17600 79.88405 28 ft 0 kts 37°
2026-04-25 07:54 7.17583 79.88390 27 ft 4 kts 49°
2026-04-25 07:54 7.17566 79.88370 27 ft 4 kts 36°
2026-04-25 07:54 7.17551 79.88367 27 ft 4 kts 331°
2026-04-25 07:54 7.17529 79.88383 27 ft 4 kts 313°
2026-04-25 07:55 7.17513 79.88404 27 ft 4 kts 304°
2026-04-25 07:55 7.17504 79.88416 27 ft 1 kts 307°
2026-04-25 07:58 7.17508 79.88411 27 ft 2 kts 307°
2026-04-25 07:58 7.17522 79.88392 27 ft 5 kts 307°
2026-04-25 07:58 7.17546 79.88360 27 ft 7 kts 307°
2026-04-25 07:58 7.17580 79.88315 27 ft 9 kts 307°
2026-04-25 07:59 7.17623 79.88256 28 ft 11 kts 296°
2026-04-25 07:59 7.17579 79.88192 28 ft 13 kts 217°
2026-04-25 07:59 7.17499 79.88131 27 ft 16 kts 217°
2026-04-25 07:59 7.17403 79.88058 27 ft 19 kts 217°
2026-04-25 08:00 7.17292 79.87973 27 ft 21 kts 217°
2026-04-25 08:00 7.17167 79.87877 27 ft 24 kts 217°
2026-04-25 08:00 7.17030 79.87772 27 ft 26 kts 217°
2026-04-25 08:00 7.16884 79.87661 27 ft 26 kts 217°
2026-04-25 08:01 7.16842 79.87583 28 ft 13 kts 302°
2026-04-25 08:01 7.16893 79.87517 29 ft 12 kts 308°
2026-04-25 08:01 7.16939 79.87481 30 ft 3 kts 20°
2026-04-25 08:01 7.16963 79.87493 30 ft 5 kts 33°
2026-04-25 08:02 7.16985 79.87512 29 ft 16 kts 40°
2026-04-25 08:02 7.17285 79.87741 28 ft 89 kts 37°
2026-04-25 08:02 7.17936 79.88238 29 ft 143 kts 37°
2026-04-25 08:02 7.18817 79.88905 295 ft 163 kts 36°
2026-04-25 08:03 7.19731 79.89572 948 ft 163 kts 28°
2026-04-25 08:03 7.20813 79.89739 1581 ft 160 kts 349°
2026-04-25 08:03 7.21900 79.89542 2206 ft 159 kts 349°
2026-04-25 08:03 7.23050 79.89336 2531 ft 179 kts 349°
2026-04-25 08:04 7.24352 79.89105 2813 ft 202 kts 349°
2026-04-25 08:04 7.25823 79.88846 3139 ft 227 kts 349°
2026-04-25 08:04 7.27461 79.88564 3571 ft 251 kts 352°
2026-04-25 08:04 7.29274 79.88368 4268 ft 263 kts 356°
2026-04-25 08:05 7.31097 79.88344 5159 ft 268 kts
2026-04-25 08:05 7.32996 79.88407 6070 ft 271 kts
2026-04-25 08:05 7.34897 79.88489 6954 ft 275 kts
2026-04-25 08:05 7.36824 79.88561 7817 ft 279 kts
2026-04-25 08:06 7.38749 79.88616 8639 ft 282 kts
2026-04-25 08:06 7.40751 79.88650 9463 ft 286 kts
2026-04-25 08:06 7.42751 79.88663 10255 ft 289 kts 360°
2026-04-25 08:06 7.44838 79.88666 10584 ft 311 kts 359°
2026-04-25 08:07 7.47084 79.88663 10822 ft 333 kts 359°
2026-04-25 08:07 7.49431 79.88660 11381 ft 341 kts 359°
2026-04-25 08:07 7.51821 79.88659 12054 ft 345 kts 360°
2026-04-25 08:07 7.54232 79.88661 12732 ft 349 kts 360°
2026-04-25 08:08 7.56674 79.88664 13410 ft 352 kts 360°
2026-04-25 08:08 7.59136 79.88667 14072 ft 356 kts 360°
2026-04-25 08:08 7.61625 79.88671 14731 ft 359 kts 360°
2026-04-25 08:08 7.64136 79.88676 15352 ft 363 kts 360°
2026-04-25 08:09 7.66669 79.88680 15955 ft 366 kts 360°
2026-04-25 08:09 7.69226 79.88707 16545 ft 369 kts
2026-04-25 08:09 7.71805 79.88847 17134 ft 373 kts
2026-04-25 08:09 7.74400 79.89067 17723 ft 376 kts
2026-04-25 08:10 7.77016 79.89324 18301 ft 379 kts
2026-04-25 08:10 7.79651 79.89586 18887 ft 383 kts
2026-04-25 08:10 7.82315 79.89841 19475 ft 386 kts
2026-04-25 08:10 7.84999 79.90085 20057 ft 389 kts
2026-04-25 08:11 7.87709 79.90320 20620 ft 393 kts
2026-04-25 08:11 7.90444 79.90548 21152 ft 396 kts
2026-04-25 08:11 7.93199 79.90773 21672 ft 399 kts
2026-04-25 08:11 7.95979 79.90998 22166 ft 402 kts
2026-04-25 08:12 7.98779 79.91224 22664 ft 405 kts
2026-04-25 08:12 8.01604 79.91457 23143 ft 408 kts
2026-04-25 08:12 8.04441 79.91695 23610 ft 411 kts
2026-04-25 08:12 8.07299 79.91936 24058 ft 414 kts
2026-04-25 08:13 8.10178 79.92181 24497 ft 417 kts
2026-04-25 08:13 8.13076 79.92426 24909 ft 419 kts
2026-04-25 08:13 8.15995 79.92672 25321 ft 422 kts
2026-04-25 08:14 8.21885 79.93163 26092 ft 427 kts
2026-04-25 08:14 8.24854 79.93412 26468 ft 429 kts
2026-04-25 08:14 8.27840 79.93664 26835 ft 432 kts
2026-04-25 08:14 8.30845 79.93918 27196 ft 434 kts
2026-04-25 08:15 8.33865 79.94173 27550 ft 437 kts
2026-04-25 08:15 8.36904 79.94426 27893 ft 439 kts
2026-04-25 08:15 8.39957 79.94681 28236 ft 442 kts
2026-04-25 08:15 8.43026 79.94940 28573 ft 444 kts
2026-04-25 08:16 8.46114 79.95199 28905 ft 446 kts
2026-04-25 08:16 8.49214 79.95459 29227 ft 448 kts
2026-04-25 08:16 8.52332 79.95720 29540 ft 450 kts
2026-04-25 08:16 8.55459 79.95983 29850 ft 453 kts
2026-04-25 08:17 8.58605 79.96249 30186 ft 454 kts
2026-04-25 08:17 8.61744 79.96511 30617 ft 452 kts
2026-04-25 08:17 8.64879 79.96770 31040 ft 451 kts
2026-04-25 08:17 8.68006 79.97030 31453 ft 450 kts
2026-04-25 08:18 8.71125 79.97293 31864 ft 450 kts
2026-04-25 08:18 8.74241 79.97557 32276 ft 449 kts
2026-04-25 08:18 8.77350 79.97819 32684 ft 448 kts
2026-04-25 08:18 8.80452 79.98081 33083 ft 447 kts
2026-04-25 08:19 8.83552 79.98341 33479 ft 446 kts
2026-04-25 08:19 8.86646 79.98599 33871 ft 446 kts
2026-04-25 08:19 8.89734 79.98858 34263 ft 445 kts
2026-04-25 08:19 8.92815 79.99119 34637 ft 444 kts
2026-04-25 08:20 8.95892 79.99382 34934 ft 444 kts
2026-04-25 08:20 9.02082 79.99910 35007 ft 448 kts
2026-04-25 08:21 9.08297 80.00437 35006 ft 449 kts
2026-04-25 08:21 9.14520 80.00956 35006 ft 449 kts
2026-04-25 08:22 9.20743 80.01474 35007 ft 449 kts
2026-04-25 08:22 9.26963 80.01995 35009 ft 448 kts
2026-04-25 08:23 9.33185 80.02521 35009 ft 449 kts
2026-04-25 08:23 9.39406 80.03045 35011 ft 449 kts
2026-04-25 08:24 9.45626 80.03570 35011 ft 449 kts
2026-04-25 08:24 9.51848 80.04095 35012 ft 449 kts
2026-04-25 08:25 9.58071 80.04618 35013 ft 449 kts
2026-04-25 08:25 9.64294 80.05143 35014 ft 449 kts
2026-04-25 08:26 9.70519 80.05674 35019 ft 449 kts
2026-04-25 08:26 9.76745 80.06211 35016 ft 449 kts
2026-04-25 08:27 9.82971 80.06735 35017 ft 449 kts
2026-04-25 08:27 9.89198 80.07258 35018 ft 449 kts
2026-04-25 08:28 9.95423 80.07783 35018 ft 449 kts
2026-04-25 08:28 10.01650 80.08269 35017 ft 449 kts
2026-04-25 08:29 10.07890 80.08445 35022 ft 449 kts
2026-04-25 08:29 10.14134 80.08457 35019 ft 448 kts 360°
2026-04-25 08:30 10.20376 80.08512 35015 ft 448 kts
2026-04-25 08:30 10.26614 80.08625 35015 ft 448 kts
2026-04-25 08:31 10.32851 80.08757 35021 ft 448 kts
2026-04-25 08:31 10.39090 80.08874 35018 ft 448 kts
2026-04-25 08:32 10.45327 80.08988 35018 ft 448 kts
2026-04-25 08:32 10.51566 80.09099 35013 ft 448 kts
2026-04-25 08:33 10.57802 80.09206 35018 ft 448 kts
2026-04-25 08:33 10.62988 80.09298 35021 ft 448 kts
2026-04-25 08:34 10.70279 80.09436 35014 ft 448 kts
2026-04-25 08:34 10.75467 80.09533 35017 ft 448 kts
2026-04-25 08:35 10.81705 80.09640 35017 ft 448 kts
2026-04-25 08:35 10.87945 80.09745 35018 ft 449 kts
2026-04-25 08:36 10.94189 80.09856 35017 ft 449 kts
2026-04-25 08:36 11.00428 80.09973 35020 ft 449 kts
2026-04-25 08:37 11.06716 80.10088 35018 ft 449 kts
2026-04-25 08:37 11.12916 80.10199 35024 ft 449 kts
2026-04-25 08:38 11.19155 80.10307 35023 ft 448 kts
2026-04-25 08:38 11.25395 80.10420 35018 ft 449 kts
2026-04-25 08:39 11.31627 80.10534 35026 ft 448 kts
2026-04-25 08:39 11.37851 80.10649 35027 ft 447 kts
2026-04-25 08:39 11.40963 80.10706 34565 ft 449 kts
2026-04-25 08:40 11.44125 80.10764 33328 ft 460 kts
2026-04-25 08:40 11.47354 80.10824 32195 ft 467 kts
2026-04-25 08:40 11.50608 80.10882 31344 ft 467 kts
2026-04-25 08:40 11.53894 80.10938 30496 ft 465 kts
2026-04-25 08:41 11.57121 80.10992 29775 ft 462 kts
2026-04-25 08:41 11.60320 80.11045 29105 ft 458 kts
2026-04-25 08:41 11.63488 80.11101 28455 ft 453 kts
2026-04-25 08:41 11.66626 80.11160 27809 ft 449 kts
2026-04-25 08:42 11.69730 80.11221 27166 ft 444 kts
2026-04-25 08:42 11.72808 80.11281 26525 ft 440 kts
2026-04-25 08:42 11.75851 80.11335 25891 ft 436 kts
2026-04-25 08:42 11.78849 80.11386 24970 ft 427 kts
2026-04-25 08:43 11.81796 80.11437 23880 ft 420 kts
2026-04-25 08:43 11.84686 80.11326 22928 ft 411 kts 351°
2026-04-25 08:43 11.87404 80.10703 22530 ft 391 kts 342°
2026-04-25 08:43 11.89887 80.09696 22095 ft 381 kts 335°
2026-04-25 08:44 11.92299 80.08595 21629 ft 379 kts 335°
2026-04-25 08:44 11.94700 80.07497 21168 ft 377 kts 335°
2026-04-25 08:44 11.97083 80.06403 20697 ft 374 kts 335°
2026-04-25 08:44 11.99450 80.05312 20228 ft 372 kts 335°
2026-04-25 08:45 12.01800 80.04227 19735 ft 370 kts 335°
2026-04-25 08:45 12.04134 80.03148 19255 ft 367 kts 335°
2026-04-25 08:45 12.06453 80.02074 18769 ft 365 kts 335°
2026-04-25 08:45 12.08756 80.01006 18271 ft 363 kts 335°
2026-04-25 08:46 12.11048 79.99946 17783 ft 360 kts 335°
2026-04-25 08:46 12.13324 79.98895 17286 ft 358 kts 335°
2026-04-25 08:46 12.15587 79.97852 16799 ft 356 kts 335°
2026-04-25 08:46 12.17834 79.96814 16309 ft 353 kts 335°
2026-04-25 08:47 12.20066 79.95779 15816 ft 351 kts 335°
2026-04-25 08:47 12.22287 79.94750 15335 ft 349 kts 335°
2026-04-25 08:47 12.24490 79.93729 14854 ft 347 kts 335°
2026-04-25 08:47 12.26680 79.92716 14371 ft 344 kts 335°
2026-04-25 08:48 12.28856 79.91708 13893 ft 342 kts 335°
2026-04-25 08:48 12.31019 79.90708 13418 ft 340 kts 335°
2026-04-25 08:48 12.33166 79.89713 12972 ft 337 kts 335°
2026-04-25 08:48 12.35267 79.88741 12838 ft 324 kts 335°
2026-04-25 08:49 12.37285 79.87808 12708 ft 313 kts 336°
2026-04-25 08:49 12.39296 79.87147 12540 ft 305 kts 349°
2026-04-25 08:49 12.41389 79.87009 12296 ft 301 kts
2026-04-25 08:49 12.43448 79.87364 11911 ft 301 kts 13°
2026-04-25 08:50 12.45483 79.87858 11505 ft 301 kts 13°
2026-04-25 08:50 12.47547 79.88358 11161 ft 299 kts 13°
2026-04-25 08:50 12.49545 79.88841 10781 ft 299 kts 13°
2026-04-25 08:50 12.51558 79.89326 10381 ft 299 kts 13°
2026-04-25 08:51 12.53570 79.89812 10110 ft 294 kts 13°
2026-04-25 08:51 12.55558 79.90292 9751 ft 293 kts 13°
2026-04-25 08:51 12.57540 79.90772 9398 ft 292 kts 13°
2026-04-25 08:51 12.59511 79.91246 9060 ft 290 kts 13°
2026-04-25 08:52 12.61474 79.91718 8710 ft 289 kts 13°
2026-04-25 08:52 12.63428 79.92187 8366 ft 288 kts 13°
2026-04-25 08:52 12.65368 79.92653 8023 ft 286 kts 13°
2026-04-25 08:52 12.67304 79.93120 7680 ft 285 kts 13°
2026-04-25 08:53 12.69229 79.93583 7344 ft 283 kts 13°
2026-04-25 08:53 12.71145 79.94036 7012 ft 282 kts 12°
2026-04-25 08:53 12.73044 79.94483 6564 ft 280 kts 12°
2026-04-25 08:53 12.74967 79.94931 5821 ft 288 kts 12°
2026-04-25 08:54 12.76924 79.95387 5346 ft 285 kts 12°
2026-04-25 08:54 12.78817 79.95829 5173 ft 272 kts 12°
2026-04-25 08:54 12.80621 79.96200 5040 ft 257 kts
2026-04-25 08:54 12.82370 79.96414 4918 ft 243 kts 18°
2026-04-25 08:55 12.83723 79.97293 4794 ft 229 kts 50°
2026-04-25 08:55 12.84514 79.98658 4667 ft 221 kts 68°
2026-04-25 08:55 12.85063 80.00123 4549 ft 220 kts 69°
2026-04-25 08:55 12.85619 80.01600 4454 ft 219 kts 69°
2026-04-25 08:56 12.86176 80.03076 4412 ft 234 kts 69°
2026-04-25 08:56 12.86795 80.04720 4341 ft 254 kts 69°
2026-04-25 08:56 12.87436 80.06421 4230 ft 256 kts 69°
2026-04-25 08:56 12.88078 80.08126 4175 ft 257 kts 69°
2026-04-25 08:57 12.88720 80.09834 4165 ft 256 kts 69°
2026-04-25 08:57 12.89359 80.11535 3877 ft 255 kts 69°
2026-04-25 08:57 12.89995 80.13227 3567 ft 254 kts 69°
2026-04-25 08:57 12.90630 80.14915 3265 ft 253 kts 69°
2026-04-25 08:58 12.91260 80.16592 3132 ft 252 kts 69°
2026-04-25 08:58 12.91891 80.18270 3006 ft 252 kts 69°
2026-04-25 08:58 12.92519 80.19942 2878 ft 248 kts 69°
2026-04-25 08:58 12.93128 80.21566 2766 ft 240 kts 69°
2026-04-25 08:59 12.93717 80.23134 2666 ft 232 kts 69°
2026-04-25 08:59 12.94295 80.24673 2559 ft 230 kts 69°
2026-04-25 08:59 12.94870 80.26205 2476 ft 230 kts 69°
2026-04-25 08:59 12.95444 80.27735 2422 ft 230 kts 69°
2026-04-25 09:00 12.96039 80.29258 2385 ft 230 kts 62°
2026-04-25 09:00 12.97023 80.30489 2314 ft 218 kts 38°
2026-04-25 09:00 12.98362 80.31046 2227 ft 204 kts
2026-04-25 09:00 12.99726 80.30909 2149 ft 193 kts 345°
2026-04-25 09:01 13.00984 80.30501 2091 ft 187 kts 339°
2026-04-25 09:01 13.02047 80.29825 2049 ft 175 kts 314°
2026-04-25 09:01 13.02697 80.28819 1998 ft 167 kts 290°
2026-04-25 09:01 13.02895 80.27665 1899 ft 163 kts 267°
2026-04-25 09:02 13.02649 80.26588 1721 ft 148 kts 248°
2026-04-25 09:02 13.02288 80.25627 1539 ft 142 kts 249°
2026-04-25 09:02 13.01939 80.24693 1360 ft 139 kts 249°
2026-04-25 09:02 13.01593 80.23771 1173 ft 138 kts 249°
2026-04-25 09:03 13.01250 80.22854 993 ft 137 kts 249°
2026-04-25 09:03 13.00908 80.21940 804 ft 137 kts 249°
2026-04-25 09:03 13.00565 80.21028 627 ft 137 kts 249°
2026-04-25 09:03 13.00224 80.20119 438 ft 137 kts 249°
2026-04-25 09:04 12.99884 80.19211 262 ft 136 kts 249°
2026-04-25 09:04 12.99545 80.18304 89 ft 136 kts 249°
2026-04-25 09:04 12.99231 80.17467 54 ft 103 kts 249°
2026-04-25 09:04 12.99033 80.16946 54 ft 54 kts 249°
2026-04-25 09:05 12.98939 80.16692 55 ft 35 kts 250°
2026-04-25 09:05 12.98862 80.16488 56 ft 24 kts 246°
2026-04-25 09:05 12.98761 80.16372 54 ft 19 kts 218°
2026-04-25 09:05 12.98683 80.16312 50 ft 10 kts 217°
2026-04-25 09:06 12.98644 80.16283 52 ft 3 kts 216°
2026-04-25 09:06 12.98617 80.16275 55 ft 4 kts 172°
2026-04-25 09:06 12.98594 80.16272 51 ft 5 kts 192°
2026-04-25 09:06 12.98571 80.16243 55 ft 7 kts 247°
2026-04-25 09:07 12.98551 80.16189 55 ft 9 kts 249°
2026-04-25 09:07 12.98513 80.16129 55 ft 11 kts 195°
2026-04-25 09:07 12.98434 80.16158 53 ft 13 kts 157°
2026-04-25 09:07 12.98389 80.16178 55 ft 5 kts 151°
2026-04-25 09:08 12.98385 80.16206 51 ft 5 kts 78°
2026-04-25 09:08 12.98402 80.16249 54 ft 8 kts 69°
2026-04-25 09:08 12.98424 80.16310 55 ft 11 kts 70°
2026-04-25 09:08 12.98453 80.16391 55 ft 12 kts 69°
2026-04-25 09:09 12.98443 80.16424 50 ft 4 kts 169°
2026-04-25 09:09 12.98411 80.16437 55 ft 6 kts 157°
2026-04-25 09:09 12.98395 80.16444 55 ft 0 kts 159°